Regional Weather Roundup
Issued by NWS Burlington, VT

Home | Current Version | Previous Version | Text Only | Print | Product List | Glossary On
Versions: 1 2 3 4 5 6 7 8 9 10 11 12 13 14 15 16 17 18 19 20 21 22 23 24 25 26 27 28 29 30 31 32 33 34 35 36 37 38 39 40 41 42 43 44 45 46 47 48 49 50
000
ASUS41 KBTV 070930
RWRBTV
VERMONT REGIONAL WEATHER ROUNDUP
NATIONAL WEATHER SERVICE BURLINGTON VT
400 AM EST SUN FEB 07 2016

NOTE: "FAIR" INDICATES FEW OR NO CLOUDS BELOW 12,000 FEET WITH NO
SIGNIFICANT WEATHER AND/OR OBSTRUCTIONS TO VISIBILITY.

* THESE REPORTS ARE NOT UNDER NWS QUALITY CONTROL AND/OR DO NOT
  REPORT WEATHER SUCH AS PRECIPITATION AND FOG.

VTZ001>019-071000-
_____VERMONT_____


CITY           SKY/WX    TMP DP  RH WIND       PRES   REMARKS
BURLINGTON     CLOUDY    34  19  54 S8        30.08S WCI  27
MONTPELIER     FAIR      32  16  51 W9        30.07F WCI  24
MORRISVILLE    CLOUDY    35  18  49 SW7       30.06S WCI  29
ST. JOHNSBURY*   N/A     31  19  61 MISG      30.04R
LYNDONVILLE*   CLOUDY    31  20  63 S5        30.04S WCI  26
RUTLAND*       FAIR      34  16  47 W5        30.09F WCI  30
SPRINGFIELD    CLOUDY    23  20  88 CALM      30.12R
HIGHGATE*      CLOUDY    33  25  72 SW5       30.07R WCI  28
NEWPORT*       FLURRIES  30  23  75 SW8       30.03R WCI  23
BENNINGTON     CLOUDY    33  19  56 SW7       30.12R WCI  27
SUTTON*          N/A     28 N/A N/A MISG        N/A
GALLUP MILLS*    N/A     28 N/A N/A MISG        N/A
UNION VILLAGE*   N/A     23 N/A N/A MISG        N/A
MT. MANSFIELD*   N/A     18 N/A N/A NW37        N/A  WCI  -4

_____LAKE CHAMPLAIN_____


CITY           SKY/WX    TMP DP  RH WIND       PRES   REMARKS
COLCHESTER RF*   N/A     37  25  60 W10         N/A  WCI  30
DIAMOND ISL*     N/A     34  25  69 S7          N/A  WCI  28

$$

NYZ007-026>031-035-052-083-071000-
_____NORTHERN NEW YORK_____


CITY           SKY/WX    TMP DP  RH WIND       PRES   REMARKS
PLATTSBURGH    CLOUDY    34  23  64 CALM      30.07S
SARANAC LAKE   CLOUDY    27  22  81 SW6       30.00S WCI  20
MASSENA        CLOUDY    34  24  67 SW9       30.08R WCI  27
OGDENSBURG*    CLOUDY    34  27  75 SW7       30.08R WCI  28
POTSDAM*       CLOUDY    34  28  80 W12       30.07S WCI  25
WATERTOWN      CLOUDY    34  27  75 SW9       30.10S WCI  27
ALBANY         MOCLDY    32  19  58 S8        30.16S WCI  25
GLENS FALLS    MOCLDY    29  20  69 CALM      30.13F

$$
NHZ002-005-011-071000-
_____NEW HAMPSHIRE_____


CITY           SKY/WX    TMP DP  RH WIND       PRES   REMARKS
LEBANON        CLEAR     25  19  78 S3        30.09R
MT WASHINGTON  FOG        9   9 100 W64         N/A  VSB 0   WCI -21
PLYMOUTH       FAIR      21  20  96 CALM      30.09S
WHITEFIELD     CLOUDY    31  19  61 NW5       30.03S WCI  26

$$

_____REGIONAL QUEBEC LOCATIONS_____


CITY           SKY/WX    TMP DP  RH WIND       PRES   REMARKS
MONTREAL       FLURRIES  34  27  75 W13G18    30.05R WCI  25
QUEBEC CITY    CLOUDY    23  10  58 W18       29.95R WCI   9
SHERBROOKE     FLURRIES  30  28  93 SW10G18   29.99R WCI  21

_____REGIONAL ONTARIO LOCATIONS_____


CITY           SKY/WX    TMP DP  RH WIND       PRES   REMARKS
OTTAWA         CLOUDY    32  23  69 SW7       30.05R WCI  26

______KEY______
VSB  - VISIBILITY IN MILES
WCI  - WIND CHILL INDEX
HX   - HEAT INDEX
$$
NNNN



USA.gov is the U.S. government's official web portal to all federal, state and local government web resources and services.